TimePST,TemperatureF,Dew PointF,Humidity,Sea Level PressureIn,VisibilityMPH,Wind Direction,Wind SpeedMPH,Gust SpeedMPH,PrecipitationIn,Events,Conditions,WindDirDegrees,DateUTC
12:56 AM,28.2,26.4,93,30.11,9.0,West,1.2,-,N/A,,Mostly Cloudy,260,2013-12-22 08:56:00
1:56 AM,27.9,25.9,92,30.13,8.0,West,4.6,-,N/A,,Mostly Cloudy,260,2013-12-22 09:56:00
2:56 AM,27.5,26.1,94,30.14,7.0,WSW,4.6,-,N/A,,Mostly Cloudy,240,2013-12-22 10:56:00
3:56 AM,27.5,26.1,94,30.16,7.0,SSE,2.3,-,N/A,,Mostly Cloudy,160,2013-12-22 11:56:00
4:56 AM,27.1,26.1,96,30.16,6.0,SW,2.3,-,N/A,,Mostly Cloudy,220,2013-12-22 12:56:00
5:56 AM,27.1,25.9,95,30.17,7.0,SW,3.5,-,N/A,,Mostly Cloudy,230,2013-12-22 13:56:00
6:56 AM,28.0,27.1,96,30.18,9.0,NE,2.3,-,N/A,,Mostly Cloudy,50,2013-12-22 14:56:00
7:56 AM,25.5,24.3,95,30.20,3.0,WSW,4.6,-,N/A,,Scattered Clouds,250,2013-12-22 15:56:00
8:01 AM,24.8,24.8,100,30.20,2.8,West,3.5,-,N/A,,Scattered Clouds,270,2013-12-22 16:01:00
8:26 AM,26.6,26.6,100,30.21,3.0,SSW,2.3,-,N/A,,Mostly Cloudy,200,2013-12-22 16:26:00
8:56 AM,28.8,27.9,96,30.21,4.0,SW,2.3,-,N/A,,Mostly Cloudy,220,2013-12-22 16:56:00
9:56 AM,31.1,28.0,88,30.24,7.0,Variable,1.2,-,N/A,,Scattered Clouds,0,2013-12-22 17:56:00
10:56 AM,34.3,29.5,82,30.24,10.0,Variable,1.2,-,N/A,,Mostly Cloudy,0,2013-12-22 18:56:00
11:56 AM,36.5,29.3,75,30.24,10.0,NW,2.3,-,N/A,,Mostly Cloudy,320,2013-12-22 19:56:00
12:56 PM,37.8,29.5,72,30.24,11.0,Variable,1.2,-,N/A,,Mostly Cloudy,0,2013-12-22 20:56:00
1:56 PM,39.2,29.8,69,30.24,12.0,WNW,3.5,-,N/A,,Partly Cloudy,290,2013-12-22 21:56:00
2:56 PM,37.2,29.5,74,30.25,10.0,WSW,3.5,-,N/A,,Mostly Cloudy,240,2013-12-22 22:56:00
3:56 PM,35.8,29.3,77,30.26,10.0,NNE,3.5,-,N/A,,Mostly Cloudy,30,2013-12-22 23:56:00
4:56 PM,32.7,27.1,80,30.27,10.0,East,2.3,-,N/A,,Mostly Cloudy,90,2013-12-23 00:56:00
5:56 PM,31.8,28.0,86,30.28,9.0,ENE,4.6,-,N/A,,Mostly Cloudy,70,2013-12-23 01:56:00
6:56 PM,32.2,28.0,85,30.28,10.0,Variable,1.2,-,N/A,,Mostly Cloudy,0,2013-12-23 02:56:00
7:56 PM,31.8,28.2,87,30.27,9.0,ESE,3.5,-,N/A,,Mostly Cloudy,110,2013-12-23 03:56:00
8:16 PM,32.0,28.4,87,30.27,9.0,NE,2.3,-,N/A,Rain,Light Rain,50,2013-12-23 04:16:00
8:51 PM,32.0,28.4,87,30.28,8.0,Variable,2.3,-,N/A,,Mostly Cloudy,0,2013-12-23 04:51:00
8:56 PM,32.0,28.9,88,30.28,9.0,East,1.2,-,N/A,,Mostly Cloudy,80,2013-12-23 04:56:00
9:56 PM,32.2,29.3,89,30.28,8.0,SE,2.3,-,N/A,,Mostly Cloudy,130,2013-12-23 05:56:00
10:56 PM,32.5,29.3,88,30.26,8.0,East,2.3,-,N/A,,Mostly Cloudy,80,2013-12-23 06:56:00
11:56 PM,31.6,28.9,90,30.26,7.0,North,2.3,-,N/A,,Mostly Cloudy,10,2013-12-23 07:56:00